Tracking 30166 objects as of 22-Jan-2025
HD Live streaming from Space Station
objects crossing your sky now

SL-8 R/B

Track SL-8 R/B now!
10-day predictions


NORAD ID: 11511
Int'l Code: 1979-078B
Perigee: 761.3 km
Apogee: 783.6 km
Inclination: 74.0 °
Period: 100.1 minutes
Semi major axis: 7143 km
RCS: 4.942 m2 (large)
Launch date: August 28, 1979
Source: Commonwealth of Independent States (former USSR) (CIS)
Launch site: PLESETSK MISSILE AND SPACE COMPLEX (PKMTR)

Note: This is a ROCKET BODY
Your satellite tracking list
Your tracking list is empty




NASA's NSSDC Master Catalog

Two Line Element Set (TLE):
1 11511U 79078B   25021.93901379  .00000558  00000-0  19315-3 0  9991
2 11511  74.0341 251.0983 0015624 181.0777 179.0346 14.37946720377052
Source of the keplerian elements: AFSPC